Terug naar catalogus

STARLINK-34893

ActiefCommunicatieVLEO
NORAD 65752·PAYLOAD·🇺🇸 United States

Gelanceerd Sep 25, 2025 vanaf Cape Canaveral Space Force Station

Loading…

Volgende Passages (komende 24 uur)

TLE

VersSource: CelesTrak SupGP

Epoch: Sep 14, 2026, 22:30 UTC

1 65752C 25216U   26257.93798611 -.00045225  00000+0 -13357-2 0  2574
2 65752  53.1568 171.8348 0001193  79.0408  36.6292 15.34424829    10

Volg STARLINK-34893 in realtime met AllMySat

Download on the App Store